Regional Weather Roundup
Issued by NWS

Home | Current Version | Previous Version | Text Only | Print | Product List | Glossary Off
Versions: 1 2 3 4 5 6 7 8 9 10 11 12 13 14 15 16 17 18 19 20 21 22 23 24 25 26 27 28 29 30 31 32 33 34 35 36 37 38 39 40 41 42 43 44 45 46 47 48 49 50

028
ASUS45 KCYS 280710
RWRWY

WYOMING REGIONAL WEATHER ROUNDUP
NATIONAL WEATHER SERVICE CHEYENNE WY
100 AM MDT TUE MAR 28 2017

NOTE:  "FAIR" INDICATES FEW OR NO CLOUDS BELOW 12,000 FEET
WITH NO SIGNIFICANT WEATHER AND/OR OBSTRUCTIONS TO VISIBILITY.

WYZ001-280800-
YELLOWSTONE NATIONAL PARK

CITY           SKY/WX    TMP DP  RH WIND       PRES   REMARKS
LK YELLOWSTONE   N/A     28  27  96 CALM      30.04R
W YELLOWSTONE  NOT AVBL

$$
WYZ002>013-054>058-071-098>099-280800-
NORTHERN WYOMING

CITY           SKY/WX    TMP DP  RH WIND       PRES   REMARKS
JACKSON        CLOUDY    32  30  93 N3        30.02R
CODY           LGT RAIN  40  36  86 N12       30.00R WCI  33
GREYBULL       FAIR      45  35  68 NW20      29.91R
WORLAND        CLOUDY    46  37  71 NW7       29.93R
SHERIDAN       FAIR      44  37  76 W7        29.93S
BUFFALO        MOCLDY    45  34  65 W10       29.95R
GILLETTE       FAIR      36  33  89 S5        29.92R WCI  32
HULETT         FAIR      43  34  70 E7        29.93S
NEWCASTLE      FAIR      46  32  57 CALM      29.93F

$$
WYZ014>020-022>026-101>103-280800-
CENTRAL WYOMING

CITY           SKY/WX    TMP DP  RH WIND       PRES   REMARKS
BIG PINEY      FAIR      32  27  81 N9        29.95F WCI  24
PINEDALE       PTSUNNY   32  28  86 NW14      29.95S WCI  22
DUBOIS         CLOUDY    32  30  93 NW8       29.96S WCI  25
LANDER         LGT RAIN  39  36  89 N7        29.94R WCI  34
RIVERTON       LGT RAIN  40  36  86 N12       29.94R WCI  33
CASPER         MOCLDY    42  33  70 N5        29.89R
DOUGLAS        CLOUDY    46  36  68 SE7       29.90R

$$
WYZ021-027>030-104>119-280800-
SOUTHERN WYOMING

CITY           SKY/WX    TMP DP  RH WIND       PRES   REMARKS
EVANSTON       MOCLDY    31  28  89 N16       29.97S WCI  20
KEMMERER         N/A     32  28  86 NW14      29.96S WCI  22
FORT BRIDGER   CLOUDY    33  33 100 NW13      29.98S WCI  24
ROCK SPRINGS   LGT RAIN  37  33  85 N8        29.91S WCI  31
DIXON            N/A     38  34  88 NE3       29.88S
RAWLINS        CLOUDY    37  34  89 E10       29.90R WCI  30
SARATOGA       CLOUDY    34  34 100 CALM      29.90S
LARAMIE        LGT RAIN  34  34 100 N3        29.88S
CHEYENNE       CLOUDY    41  39  93 E7        29.87F
TORRINGTON     LGT RAIN  45  44  97 N7        29.88S
PINE BLUFFS    CLOUDY    43  41  93 NE5       29.87F

$$




USA.gov is the U.S. government's official web portal to all federal, state and local government web resources and services.